Weather Roundup
Issued by NWS Chicago, IL

Home | Current Version | Previous Version | Text Only | Print | Product List | Glossary On
Versions: 1 2 3 4 5 6 7 8 9 10 11 12 13 14 15 16 17 18 19 20 21 22 23 24 25 26 27 28 29 30 31 32 33 34 35 36 37 38 39 40 41 42 43 44 45 46 47 48 49 50
000
NZUS59 KLOT 141903
HRRLOT

CHICAGO AREA WEATHER ROUNDUP
NATIONAL WEATHER SERVICE CHICAGO/ROMEOVILLE IL
100 PM CST SUN FEB 14 2016

NOTE: "FAIR" INDICATES FEW OR NO CLOUDS BELOW 12,000 FEET WITH NO
SIGNIFICANT WEATHER AND/OR OBSTRUCTIONS TO VISIBILITY.

* THESE STATIONS ARE NOT UNDER NWS QUALITY CONTROL. THEY ALSO MAY NOT
  REPORT WEATHER SUCH AS PRECIPITATION OR FOG.

ILZ005-006-012>014-019>023-142000-
NORTHEAST ILLINOIS

CITY           SKY/WX    TMP DP  RH WIND       PRES   REMARKS
OHARE          SNOW      15  11  83 SE14      30.19F VSB 1/2 WCI   0
MIDWAY         SNOW      17  10  74 SE13      30.20F VSB 1/2 WCI   4
AURORA         BLWGSNOW  17  12  80 E15       30.16F VSB 1/2 WCI   2
WAUKEGAN       SNOW      16  11  80 SE12G20   30.20F VSB 1/2 WCI   3
DUPAGE AIRPORT LGT SNOW  15  10  80 E12       30.16F WCI   2
WHEELING       SNOW      15  12  88 SE8       30.21F VSB 1/2 WCI   4
$$

WIZ051-052-058>065-066-070>072-142000-
SOUTHEAST WISCONSIN

CITY           SKY/WX    TMP DP  RH WIND       PRES   REMARKS
MILWAUKEE      LGT SNOW  19  10  68 S14       30.20F WCI   6
KENOSHA*       LGT SNOW  17   9  70 S15       30.20F VSB 1   WCI   2
RACINE*        FLURRIES  20  10  65 S16G26    30.22F WCI   6
BURLINGTON     LGT SNOW  14   9  79 SE8       30.18F VSB 1   WCI   3
WAUKESHA       LGT SNOW  16   9  73 SE15      30.18F FOG     WCI   1
$$

INZ001>003-010>013-019-020-142000-
NORTHWEST INDIANA

CITY           SKY/WX    TMP DP  RH WIND       PRES   REMARKS
GARY*          LGT SNOW  18  10  73 SE14      30.25F VSB 1   WCI   4
MICHIGAN CITY* NOT AVBL
RENSSELAER*    NOT AVBL
VALPARAISO     SNOW      16  10  77 SE9       30.23F WCI   4
$$

LMZ740>746-142000-
SOUTHERN LAKE MICHIGAN

STATION/POSITION TIME  SKY/WX   TEMP WIND        PRES    VSBY
                                AIR  DIR/SP/G
                 (UTC)          (F)  (DEG/KT/KT) (MB)    (MI)
HARRISON CRIB    1800            18  160/ 17/ 21   N/A
BURNHAM HARBOR   1900            17  130/  9/ 15   N/A
CALUMET HARBOR   1800            17  150/ 11/ 17 1023.6F
BURNS HARBOR     1820            17  140/ 12/ 20 1024.7F
MICHIGAN CITY    1800            15  120/ 11/ 14   N/A
$$

ABBREVIATIONS USED IN REMARKS
   TC - TEMPERATURE IN CELSIUS
  WCI - WIND CHILL INDEX
   HX - HEAT INDEX
  VSB - VISIBILITY
$$



USA.gov is the U.S. government's official web portal to all federal, state and local government web resources and services.